Location: 22
(39.7117°N, 89.5929°W)
Time: 04:48:49
(UTC-05:00)

Vanguard 1 Rocket - Pass Details

Date: 08 February 2023
Orbit: 652 x 4223 km, 34.3° (Epoch: 26 March)

Event Time Altitude Azimuth Distance (km) Brightness Sun altitude
Rises 15:09:07 0° 277° (W) 5,254 11.9 21.7°
Reaches altitude 10° 15:11:57 10° 273° (W) 4,613 11.8 21.3°
Maximum altitude 15:25:51 61° 198° (SSW) 3,496 11.1 19.3°
Drops below altitude 10° 15:49:45 10° 126° (SE) 7,386 11.9 15.7°
Sets 15:55:53 0° 123° (ESE) 8,460 12.1 14.7°
